Location: Unspecified
(0.0000°N, 0.0000°E)
Time: 19:45:12
(UTC+02:00)

H-2A R/B - Visible Passes

Search period start: 30 June 2016 00:00
Search period end: 10 July 2016 00:00
Orbit: 289 x 33170 km, 28.0° (Epoch: 29 June)

Date Brightness Start Highest point End Pass type
(mag) Time Alt. Az. Time Alt. Az. Time Alt. Az.
30 Jun 6.3 03:07:57 10° WNW 06:57:37 62° NNW 12:08:08 10° SE visible
30 Jun 4.4 22:14:00 10° W 22:19:54 60° NNW 07:08:32 10° ESE visible
02 Jul 6.0 03:46:20 10° WNW 06:44:42 56° NW 12:42:46 10° SSE visible
02 Jul 5.3 22:48:58 10° W 22:57:04 52° N 07:48:27 10° ESE visible
04 Jul 5.8 04:25:52 10° WNW 06:55:43 49° NW 13:17:07 10° SSE visible
04 Jul 6.1 23:24:10 10° WNW 23:35:41 48° N 08:26:26 10° ESE visible
06 Jul 5.5 05:07:05 10° WNW 07:18:23 41° NW 13:51:09 10° SSE visible
06 Jul 6.4 23:59:36 10° WNW 00:16:47 46° N 09:03:11 10° ESE visible
08 Jul 5.3 05:51:03 10° WNW 07:45:39 32° WNW 14:24:36 10° S visible
09 Jul 6.7 00:35:20 10° WNW 01:03:35 47° N 09:39:08 10° SE visible
